Home   Weather   Port Harcourt   Past weeks

Flag for Nigeria Past Weather in Port Harcourt, Nigeria — Yesterday and Last 2 Weeks

Now
84 °F

Passing clouds.


Feels Like: 90 °F
Forecast: 75 / 88 °F
Wind: 5 mph from West

Location: Malabo/Fernando Poo

Current Time: Oct 1, 2016 at 1:10:35 PM

Latest Report: Oct 1, 2016 at 11:00 AM


Visibility: N/A

Pressure: 29.92 "Hg

Humidity: 66%

Dew Point: 72 °F

Location of Port HarcourtLocation

Past Weather in Port Harcourt — Graph

°F

Port Harcourt Temperature Yesterday

Maximum temperature yesterday: 81 °F (at 3:00 PM)
Minimum temperature yesterday: 73 °F (at 7:00 AM)
Average temperature yesterday: 77 °F

High & Low Weather Summary for the Past Weeks

 TemperatureHumidityPressure
High86 °F (Sep 17, 12:00 PM)94% (Sep 17, 1:00 AM)30.01 "Hg (Sep 17, 1:00 AM)
Low70 °F (Oct 1, 5:00 AM)66% (Sep 17, 11:00 AM)29.80 "Hg (Sep 29, 4:00 PM)
Average78 °F86%29.92 "Hg
* Reported Sep 16 11:00 AM — Oct 1 11:00 AM, Port Harcourt, Weather by CustomWeather, © 2016

Note: Actual official high and low records may vary slightly from our data, if they occured in-between our weather recording intervals... More about our weather records

Advertising

Port Harcourt Weather History for the Previous 24 Hours

Scroll right to see more
 ConditionsComfort  
Time TempWeatherWind HumidityBarometerVisibility
11:00 AM
Sat, Oct 1
84 °FPassing clouds.5 mph66%29.92 "HgN/A
10:00 AM84 °FPassing clouds.3 mph70%29.95 "HgN/A
9:00 AM82 °FPassing clouds.3 mph74%29.95 "HgN/A
8:00 AM75 °FPassing clouds.2 mph89%29.92 "HgN/A
7:00 AM70 °FPassing clouds.No wind94%29.89 "HgN/A
5:00 AM70 °FPassing clouds.2 mph94%29.86 "HgN/A
3:00 AM72 °FPassing clouds.1 mph94%29.86 "HgN/A
2:00 AM73 °FPassing clouds.5 mph89%29.86 "HgN/A
1:00 AM73 °FPassing clouds.6 mph94%29.89 "HgN/A
12:00 AM73 °FPassing clouds.5 mph94%29.92 "HgN/A
11:00 PM
Fri, Sep 30
73 °FPassing clouds.3 mph94%29.95 "HgN/A
10:00 PM75 °FPassing clouds.2 mph89%29.95 "HgN/A
9:00 PM75 °FPassing clouds.5 mph89%29.92 "HgN/A
8:00 PM75 °FPassing clouds.7 mph89%29.89 "HgN/A
7:00 PM75 °FPassing clouds.5 mph89%29.86 "HgN/A
6:00 PM77 °FPassing clouds.7 mph89%29.86 "HgN/A
5:00 PM79 °FPartly sunny.7 mph84%29.83 "HgN/A
4:00 PM81 °FPassing clouds.2 mph74%29.80 "HgN/A
3:00 PM81 °FPartly sunny.8 mph74%29.83 "HgN/A
2:00 PM79 °FThunderstorms. Broken clouds.7 mph79%29.86 "Hg5 mi
1:00 PM77 °FThunderstorms. Broken clouds.3 mph89%29.92 "Hg5 mi
Weather by CustomWeather, © 2016

See weather overviewHow to use our weather pages